Tracking 19249 objects as of 15-Oct-2018
HD Live streaming from Space Station
objects crossing your sky now

ARIANE 42L R/B

Track ARIANE 42L R/B now!
10-day predictions


NORAD ID: 25586
Int'l Code: 1998-075B
Perigee: 216.3 km
Apogee: 17,560.0 km
Inclination: 7.4 °
Period: 312.6 minutes
Semi major axis: 15259 km
RCS: 21.3079 m2 (large)
Launch date: December 22, 1998
Source: France (FR)
Launch site: FRENCH GUIANA (FRGUI)

Note: This is a ROCKET BODY
aabbcc
Your satellite tracking list
Your tracking list is empty




NASA's NSSDC Master Catalog

Two Line Element Set (TLE):
1 25586U 98075B   18288.16509501  .00033205  00000-0  11495-2 0  9994
2 25586   7.4492 212.1971 5683043 170.4744 208.1699  4.60581016251861
Source of the keplerian elements: AFSPC